Flag for India Weather past 2 weeks in Tarn Taran Sahib, Punjab, India

Now
81 °F

Fog.


Feels Like: 88 °F
Forecast: 81 / 99 °F
Wind: No wind

Location: Amritsar Airport

Current Time: Jul 1, 2015 at 3:05:10 AM

Latest Report: Jul 1, 2015 at 2:00 AM


Visibility: 2 mi

Pressure: 29.62 "Hg

Humidity: 94%

Dew point: 79 °F

Location of Tarn Taran SahibLocation

Historic Weather in Tarn Taran Sahib — Graph

°F

Tarn Taran Sahib temperature yesterday

Maximum temperature yesterday: 91 °F (at 3:00 PM)
Minimum temperature yesterday: 75 °F (at 12:00 AM)
Average temperature yesterday: 83 °F

Past Weeks' High & Low Weather Summary

 TemperatureHumidityPressure
High109 °F (Jun 19, 4:00 PM)100% (Jun 24, 4:00 AM)29.71 "Hg (Jun 24, 4:00 AM)
Low73 °F (Jun 21, 1:30 AM)25% (Jun 19, 1:30 PM)29.36 "Hg (Jun 22, 5:30 PM)
Average89 °F58%29.51 "Hg
* Reported Jun 16 1:30 AM — Jul 1 1:30 AM, Tarn Taran Sahib, Weather by CustomWeather, © 2015

Note: Actual official high and low records may vary slightly from our data, if they occured in-between our weather recording intervals... More about our weather records

Advertising

Tarn Taran Sahib weather history for previous 24 hours

 ConditionsComfort  
Time TempWeatherWind HumidityBarometerVisibility
1:30 AM
Wed, Jul 1
82 °FFog.No wind84%29.65 "Hg2 mi
1:00 AM82 °FFog.No wind89%29.65 "Hg2 mi
12:30 AM82 °FFog.No wind84%29.65 "Hg2 mi
12:00 AM82 °FFog.No wind84%29.65 "Hg2 mi
11:30 PM
Tue, Jun 30
84 °FFog.No wind79%29.65 "Hg2 mi
10:30 PM84 °FPassing clouds.No wind79%29.65 "Hg2 mi
10:00 PM84 °FPassing clouds.No wind74%29.65 "Hg2 mi
9:30 PM86 °FPassing clouds.No wind70%29.65 "Hg2 mi
8:30 PM86 °FPassing clouds.No wind70%29.62 "Hg2 mi
8:00 PM88 °FScattered clouds.No wind66%29.62 "Hg2 mi
7:00 PM88 °FScattered clouds.1 mph62%29.62 "Hg3 mi
6:00 PM90 °FScattered clouds.6 mph59%29.62 "Hg3 mi
5:30 PM91 °FScattered clouds.7 mph59%29.62 "Hg3 mi
5:00 PM91 °FScattered clouds.2 mph59%29.62 "Hg3 mi
4:30 PM91 °FScattered clouds.6 mph59%29.62 "Hg3 mi
4:00 PM91 °FScattered clouds.3 mph56%29.62 "Hg3 mi
3:30 PM91 °FScattered clouds.3 mph59%29.65 "Hg3 mi
3:00 PM91 °FScattered clouds.6 mph59%29.65 "Hg3 mi
2:30 PM90 °FScattered clouds.3 mph59%29.65 "Hg3 mi
2:00 PM90 °FScattered clouds.6 mph59%29.65 "Hg3 mi
1:30 PM90 °FBroken clouds.5 mph63%29.68 "Hg3 mi
1:00 PM90 °FBroken clouds.3 mph63%29.68 "Hg3 mi
12:30 PM86 °FBroken clouds.7 mph66%29.68 "Hg3 mi
12:00 PM86 °FBroken clouds.8 mph62%29.68 "Hg3 mi
11:30 AM88 °FScattered clouds.8 mph59%29.68 "Hg3 mi
10:30 AM84 °FScattered clouds.1 mph62%29.71 "Hg3 mi
10:00 AM84 °FScattered clouds.1 mph62%29.71 "Hg3 mi
9:30 AM82 °FScattered clouds.No wind70%29.71 "Hg3 mi
9:00 AM81 °FFog.No wind74%29.71 "Hg3 mi
8:00 AM77 °FDrizzle. Mostly cloudy.No wind83%29.71 "Hg1 mi
7:30 AM77 °FDrizzle. Mostly cloudy.No wind83%29.68 "Hg1 mi
7:00 AM75 °FDrizzle. Mostly cloudy.No wind89%29.68 "Hg1 mi
6:00 AM75 °FFog.No wind89%29.68 "Hg2 mi
5:30 AM75 °FFog.No wind89%29.68 "Hg2 mi
5:00 AM75 °FFog.No wind83%29.68 "Hg2 mi
4:30 AM75 °FFog.No wind83%29.65 "Hg2 mi
4:00 AM75 °FFog.7 mph83%29.65 "Hg2 mi
3:30 AM75 °FFog.5 mph83%29.65 "Hg2 mi
Weather by CustomWeather, © 2015

See weather overviewHow to use our weather pages